www.pogodaiklimat.ru

Погода и климат >> Архив погоды >> Австралия >> Birdsville Airport


ПОГОДА в Birdsville Airport

  • Прогноз погоды в Birdsville Airport
  • Монитор погоды в Birdsville Airport
  • Климат города

АРХИВ ПОГОДЫ в Birdsville Airport

Время (UTC), дата Ветер
(напр.,м/с)
 
Видим.   Явления Облачность Т
(С)
Тd
(С)
f
(%)
Тe
(С)
Тes
(С)
Комфортность P
(гПа)
Po
(гПа)
Тmin
(С)
Tmax
(С)
R
(мм)
R24
(мм)
S
(см)
14 17.06 Ю 5 н/о н/о +16.2 +5.5 49 +15 +15 1023.6 1017.9 +25.3
15 17.06 Ю 5 н/о н/о +15.4 +5.3 51 +14 +14 1023.6 1017.9
17 17.06 Ю 3 н/о н/о +13.5 +5.2 57 +12 +12 1023.4 1017.7
18 17.06 Ю 4 н/о н/о +12.9 +5.1 59 +11 +11 1023.5 1017.8
20 17.06 Ю 4 н/о н/о +12.1 +5.0 62 +10 +10 1023.9 1018.2
21 17.06 Ю 4 н/о н/о +10.7 +4.4 65 +9 +9 1024.6 1018.9
23 17.06 ЮВ 4 н/о н/о +13.0 +5.2 59 +11 +11 1025.9 1020.2
00 18.06 ЮВ 4 н/о н/о +16.9 +6.4 50 +16 +16 1026.4 1020.7
02 18.06 ЮВ 7 н/о н/о +21.8 +6.1 36 +22 +22 комфорт 1025.7 1020.0 +10.4
03 18.06 ЮВ 8 н/о н/о +22.7 +6.0 34 +23 +23 комфорт 1024.6 1018.9
05 18.06 ЮВ 8 н/о н/о +23.0 +4.5 30 +23 +23 комфорт 1023.0 1017.3
06 18.06 ЮВ 8 н/о н/о +22.6 +3.7 29 +23 +23 комфорт 1022.9 1017.2
08 18.06 Ю 6 н/о н/о +20.8 +4.0 33 +21 +21 комфорт 1023.7 1018.0
09 18.06 Ю 4 н/о н/о +18.9 +3.5 36 +19 +19 1024.1 1018.4
11 18.06 Ю 5 н/о н/о +16.6 +3.7 42 +16 +16 1025.3 1019.6
12 18.06 Ю 5 н/о н/о +16.3 +3.7 43 +16 +16 1025.7 1020.0
14 18.06 ЮВ 5 н/о н/о +15.0 +4.1 48 +14 +14 1025.6 1019.9 +23.6
15 18.06 ЮВ 5 н/о н/о +14.1 +4.4 52 +13 +13 1025.3 1019.6
17 18.06 ЮВ 5 н/о н/о +12.9 +4.8 58 +11 +11 1024.8 1019.1
18 18.06 ЮВ 5 н/о н/о +12.3 +5.0 61 +10 +10 1024.8 1019.1
20 18.06 Ю 4 н/о н/о +10.7 +4.8 67 +9 +9 1025.0 1019.3
21 18.06 Ю 3 н/о н/о +9.8 +4.6 70 +8 +8 1025.3 1019.6
23 18.06 ЮВ 4 н/о н/о +12.3 +5.5 63 +10 +10 1026.7 1021.0
00 19.06 ЮВ 5 н/о н/о +14.6 +5.1 53 +13 +13 1027.0 1021.3
02 19.06 ЮВ 6 н/о н/о +19.6 +4.1 36 +20 +20 1025.6 1019.9 +9.7
03 19.06 ЮВ 5 н/о н/о +20.7 +3.9 33 +21 +21 комфорт 1024.8 1019.1
05 19.06 ЮВ 5 н/о н/о +22.6 +2.1 26 +22 +22 комфорт 1023.1 1017.4
06 19.06 ЮВ 5 н/о н/о +22.8 +1.8 25 +22 +22 комфорт 1022.7 1017.0
08 19.06 Ю 5 н/о н/о +20.8 +1.1 27 +21 +21 комфорт 1023.0 1017.3
09 19.06 Ю 4 н/о н/о +18.5 +0.6 30 +18 +18 1023.3 1017.6
11 19.06 Ю 4 н/о н/о +15.7 +1.4 38 +15 +15 1024.0 1018.3
12 19.06 Ю 4 н/о н/о +14.7 +1.6 41 +14 +14 1024.0 1018.3
14 19.06 Ю 3 н/о н/о +12.6 +2.2 49 +11 +11 1023.5 1017.8 +23.4
15 19.06 Ю 4 н/о н/о +12.5 +2.7 51 +11 +11 1023.2 1017.5
17 19.06 ЮВ 4 н/о н/о +11.2 +3.5 59 +9 +9 1022.9 1017.2
18 19.06 Ю 4 н/о н/о +10.7 +3.7 62 +9 +9 1022.5 1016.8
20 19.06 Ю 4 н/о н/о +9.9 +3.9 66 +8 +8 1022.6 1016.9
21 19.06 Ю 3 н/о н/о +9.0 +3.6 69 +7 +7 1023.3 1017.6
23 19.06 ЮВ 4 н/о н/о +12.5 +4.7 59 +11 +11 1024.1 1018.4
00 20.06 В 4 н/о н/о +16.4 +5.7 49 +16 +16 1024.4 1018.7
02 20.06 В 4 н/о н/о +21.7 +6.4 37 +22 +22 комфорт 1023.4 1017.7 +8.9
03 20.06 В 4 н/о н/о +23.6 +6.8 34 +24 +24 комфорт 1022.2 1016.5
05 20.06 ЮВ 4 н/о н/о +24.6 +6.4 31 +25 +25 комфорт 1020.8 1015.1
06 20.06 В 4 н/о н/о +24.4 +5.7 30 +24 +24 комфорт 1020.5 1014.8
08 20.06 ЮВ 4 н/о н/о +22.8 +6.1 34 +23 +23 комфорт 1021.1 1015.4
09 20.06 Ю 3 н/о н/о +20.4 +5.2 37 +21 +21 комфорт 1021.7 1016.0
11 20.06 Ю 4 н/о н/о +17.6 +5.2 44 +17 +17 1022.8 1017.1
12 20.06 Ю 4 н/о н/о +16.8 +5.4 47 +16 +16 1022.8 1017.1
14 20.06 ЮВ 4 н/о н/о +14.8 +4.5 50 +14 +14 1022.5 1016.8 +25.1
15 20.06 ЮВ 4 н/о н/о +13.9 +4.5 53 +13 +13 1022.3 1016.6
17 20.06 ЮВ 2 н/о н/о +12.4 +3.9 56 +12 +12 1022.1 1016.4
18 20.06 ЮВ 3 н/о н/о +11.9 +3.7 57 +11 +11 1022.1 1016.4
20 20.06 Ю 2 н/о н/о +9.6 +2.7 62 +8 +8 1022.3 1016.6
21 20.06 Ю 2 н/о н/о +9.1 +2.9 65 +8 +8 1023.0 1017.3
23 20.06 ЮВ 4 н/о н/о +12.5 +3.7 55 +11 +11 1024.5 1018.8
00 21.06 ЮВ 4 н/о н/о +16.4 +4.8 46 +16 +16 1024.6 1018.9
02 21.06 В 4 н/о н/о +23.5 +5.9 32 +24 +24 комфорт 1023.9 1018.2 +8.8
03 21.06 В 4 н/о н/о +24.5 +6.3 31 +24 +24 комфорт 1022.8 1017.1
05 21.06 Ю 4 н/о н/о +25.0 +4.7 27 +24 +24 комфорт 1021.0 1015.3
06 21.06 Ю 4 н/о н/о +25.0 +4.7 27 +24 +24 комфорт 1020.8 1015.1
08 21.06 Ю 3 н/о н/о +22.8 +4.3 30 +23 +23 комфорт 1021.2 1015.5
09 21.06 Ю 4 н/о н/о +20.6 +4.2 34 +21 +21 комфорт 1021.9 1016.2
11 21.06 Ю 5 н/о н/о +18.1 +3.9 39 +18 +18 1023.0 1017.3
12 21.06 ЮВ 4 н/о н/о +17.2 +4.2 42 +17 +17 1022.9 1017.2
14 21.06 Ю 3 н/о н/о +15.0 +3.5 46 +14 +14 1022.6 1016.9 +25.8
15 21.06 ЮВ 4 н/о н/о +13.7 +3.2 49 +13 +13 1022.2 1016.5
17 21.06 Ю 3 н/о н/о +11.5 +2.0 52 +10 +10 1021.9 1016.2
18 21.06 Ю 3 н/о н/о +10.8 +1.9 54 +9 +9 1021.8 1016.1
20 21.06 Ю 3 н/о н/о +9.5 +0.7 54 +8 +8 1022.2 1016.5
21 21.06 Ю 3 н/о н/о +9.2 +0.6 55 +7 +7 1022.8 1017.1
23 21.06 Ю 2 н/о н/о +12.5 +1.5 47 +12 +12 1023.8 1018.1
00 22.06 В 3 н/о н/о +17.5 +2.7 37 +18 +18 1024.1 1018.4
02 22.06 СВ 5 н/о н/о +23.8 +3.2 26 +23 +23 комфорт 1022.6 1016.9 +9.0
03 22.06 СВ 5 н/о н/о +25.0 +2.4 23 +24 +24 комфорт 1021.8 1016.1
05 22.06 В 3 н/о н/о +25.8 +4.3 25 +25 +25 комфорт 1020.0 1014.3
06 22.06 В 3 н/о н/о +25.8 +3.7 24 +25 +25 комфорт 1019.6 1014.0
08 22.06 В 3 н/о н/о +23.3 +3.8 28 +23 +23 комфорт 1019.9 1014.2
09 22.06 В 3 н/о н/о +20.7 +2.5 30 +22 +22 комфорт 1020.4 1014.7
11 22.06 В 3 н/о н/о +18.0 +1.9 34 +18 +18 1021.2 1015.5
12 22.06 В 3 н/о н/о +17.0 +1.8 36 +17 +17 1021.4 1015.7
14 22.06 В 3 н/о н/о +15.6 +2.4 41 +15 +15 1020.7 1015.0 +26.6
15 22.06 В 2 н/о н/о +14.0 +2.3 45 +14 +14 1020.4 1014.7
17 22.06 СВ 2 н/о н/о +12.6 +2.5 50 +12 +12 1020.1 1014.4
18 22.06 СВ 2 н/о н/о +12.2 +2.4 51 +12 +12 1020.0 1014.3
20 22.06 В 3 н/о н/о +9.0 -0.3 52 +7 +7 1020.1 1014.4
21 22.06 штиль 0 н/о н/о +8.9 +0.4 55 +9 +9 1020.5 1014.8
23 22.06 В 2 н/о н/о +13.8 +3.0 48 +13 +13 1021.2 1015.5
00 23.06 СВ 4 н/о н/о +17.4 +2.6 37 +17 +17 1021.5 1015.8
02 23.06 С 3 н/о н/о +23.9 +3.8 27 +23 +23 комфорт 1020.5 1014.8 +8.8
03 23.06 С 4 н/о н/о +25.8 +3.1 23 +25 +25 комфорт 1019.5 1013.9
05 23.06 С 2 н/о н/о +26.8 +2.7 21 +25 +25 комфорт 1017.9 1012.3
06 23.06 ЮЗ 2 н/о н/о +26.7 +3.2 22 +25 +25 комфорт 1017.5 1011.9
08 23.06 Ю 3 н/о н/о +24.2 +2.9 25 +23 +23 комфорт 1017.4 1011.8
09 23.06 ЮВ 3 н/о н/о +21.5 +2.7 29 +21 +21 комфорт 1017.5 1011.9
11 23.06 ЮВ 3 н/о н/о +18.8 +2.6 34 +19 +19 1018.5 1012.9
12 23.06 ЮВ 2 н/о н/о +17.7 +2.5 36 +18 +18 1018.8 1013.2
14 23.06 ЮВ 2 н/о н/о +14.3 +1.6 42 +14 +14 1018.4 1012.8 +27.7
15 23.06 ЮВ 2 н/о н/о +12.9 +0.3 42 +12 +12 1018.1 1012.5
17 23.06 ЮВ 2 н/о н/о +13.7 +2.3 46 +13 +13 1017.6 1012.0
18 23.06 Ю 1 н/о н/о +10.5 -0.6 46 +12 +12 1017.7 1012.1
20 23.06 Ю 2 н/о н/о +9.5 +1.2 56 +8 +8 1017.8 1012.2
21 23.06 ЮВ 2 н/о н/о +9.8 +0.9 54 +9 +9 1018.2 1012.6
23 23.06 ЮВ 3 н/о н/о +14.4 +1.7 42 +14 +14 1018.8 1013.2
00 24.06 В 4 н/о н/о +18.7 +2.1 33 +19 +19 1019.4 1013.8
02 24.06 С 4 н/о н/о +24.9 +2.4 23 +24 +24 комфорт 1018.5 1012.9 +9.3
03 24.06 С 3 н/о н/о +26.3 +2.3 21 +25 +25 комфорт 1017.7 1012.1
05 24.06 ЮЗ 3 н/о н/о +27.2 +2.3 20 +26 +26 жарко 1016.3 1010.7
06 24.06 Ю 3 н/о н/о +26.8 +2.7 21 +25 +25 комфорт 1015.9 1010.3
08 24.06 Ю 3 н/о н/о +24.5 +2.6 24 +24 +24 комфорт 1016.7 1011.1
09 24.06 ЮВ 3 н/о н/о +21.8 +2.0 27 +22 +22 комфорт 1017.1 1011.5
11 24.06 Ю 2 н/о н/о +19.3 +2.2 32 +20 +20 1017.9 1012.3
12 24.06 Ю 3 н/о н/о +16.1 -0.2 33 +16 +16 1017.9 1012.3

 

Местоположение метеостанции Birdsville Airport (Квинсленд, Австралия): широта -25.90 долгота 139.35 высота над уровнем моря 47 м.

В архиве по умолчанию представлена погода в Birdsville Airport за последнюю неделю. Архивные данные за месяц целиком и за предыдущие месяцы, начиная с января 2011 года, Вы можете получить, выбрав интересующий диапазон дат из раскрывающегося списка и нажав кнопку "Ввод!".

Внимание! Время в таблицах - всемирное. Для получения местного времени необходимо прибавить поправку, которая в Birdsville Airport равна 10 ч.

Смотрите также архив погоды в соседних городах и на ближайших метеорологических станциях:

Погода в Moomba Airport (Южная Австралия, Австралия) (259 км)
Погода в Ballera Gas Field (Квинсленд, Австралия) (298 км)
Погода в Oodnadatta Airport (Южная Австралия, Австралия) (429 км)
Погода в Marree Aero (Южная Австралия, Австралия) (437 км)
Погода в Phosphate Hill Airport (Квинсленд, Австралия) (460 км)
Погода в Jervois (Северная территория, Австралия) (461 км)
Погода в Tibooburra Airport (Новый Южный Уэльс, Австралия) (476 км)
Погода в Trepell Airport (Квинсленд, Австралия) (479 км)
Погода в Thargomindah Airport (Квинсленд, Австралия) (499 км)
Погода в Leigh Creek Airport (Южная Австралия, Австралия) (531 км)

Пояснения к столбцам:

Ветер - указаны скорость ветра в м/с - средняя за 10 мин, порывы в срок и между сроками (в фигурных скобках) и направление, откуда дует ветер: С - северный, СВ - северо-восточный, В - восточный, ЮВ - юго-восточный, Ю - южный, ЮЗ - юго-западный, З - западный, СЗ - северо-западный.
Видимость - горизонтальная дальность видимости в метрах или километрах. При видимости от 1 до 10 км при отсутствии осадков обычно наблюдается дымка, при ухудшении видимости до 1 км и менее - туман. В сухую погоду видимость может ухудшаться дымом, пылью или мглою.
Явления - указаны атмосферные явления, наблюдавшиеся в срок или в последний час перед сроком; фигурными скобками обозначены явления, наблюдавшиеся между сроками (за 1-3 часа до срока); квадратными скобками обозначены град или гололедные отложения с указанием их диаметра в мм.
Облачность - указаны через наклонную черту общая и нижняя облачность в баллах и высота нижней границы облаков в метрах; квадратными скобками обозначены формы облаков: Ci - перистые, Cs - перисто-слоистые, Cc - перисто-кучевые, Ac - высококучевые, As - высокослоистые, Sc - слоисто-кучевые, Ns - слоисто-дождевые, Cu - кучевые, Cb - кучево-дождевые. Подробнее классификацию облаков см. в Атласе облаков (PDF).
T - Температура воздуха - температура, измеренная на высоте 2 м над землей.
Td - Температура точки росы - температура, при понижении до которой содержащийся в воздухе водяной пар достигнет насыщения.
f - Относительная влажность воздуха - влажноcть воздуха, измеренная на высоте 2 м над землей.
Te - Эффективная температура - температура, которую ощущает одетый по сезону человек в тени. Характеристика душности погоды. При расчете учитывается влияние влажности воздуха и скорости ветра на теплоощущения человека.
Tes - Эффективная температура на солнце - температура, которую ощущает человек, с поправкой на солнечный нагрев. Характеристика знойности погоды. Зависит от высоты солнца над горизонтом, облачности и скорости ветра. Ночью, в пасмурную погоду, а также при ветре 12 м/с и более поправка равна нулю.
P - Атмосферное давление - приведенное к уровню моря атмосферное давление.
Po - Атмосферное давление - измеренное на уровне метеостанции атмосферное давление.
Tmin - Минимальная температура - минимум температуры воздуха на высоте 2 м над землей.
Tmax - Максимальная температура - максимум температуры воздуха на высоте 2 м над землей.
R - Количество осадков - Количество выпавших осадков за период времени, мм. При наведении курсора мыши на число - период времени, за который выпало указанное количество осадков.
R24 - Количество осадков - Количество выпавших осадков за 24 часа, мм.
S - Снежный покров - Высота снежного покрова, см. При наведении курсора мыши на число - состояние снежного покрова и степень покрытия местности в баллах.